Flag for Uruguay Weather past 2 weeks in San José de Mayo, Uruguay

Now
52 °F

Fog.


Feels Like: 51 °F
Forecast: 44 / 64 °F
Wind: 5 mph from South

Location: Carrasco

Current Time: Aug 3, 2015 at 4:33:02 AM

Latest Report: Aug 3, 2015 at 4:00 AM


Visibility: 0 mi

Pressure: 29.92 "Hg

Humidity: 100%

Dew point: 52 °F

Location of San José de MayoLocation

Historic Weather in San José de Mayo — Graph

°F

San José de Mayo temperature yesterday

Maximum temperature yesterday: 64 °F (at 1:00 PM)
Minimum temperature yesterday: 54 °F (at 12:00 AM)
Average temperature yesterday: 59 °F

Past Weeks' High & Low Weather Summary

 TemperatureHumidityPressure
High79 °F (Jul 28, 5:00 PM)100% (Jul 23, 11:00 PM)30.30 "Hg (Jul 23, 11:00 PM)
Low34 °F (Jul 22, 7:00 AM)29% (Jul 22, 3:00 PM)29.59 "Hg (Jul 31, 10:00 AM)
Average55 °F80%30.07 "Hg
* Reported Jul 19 3:00 AM — Aug 3 3:00 AM, San José de Mayo, Weather by CustomWeather, © 2015

Note: Actual official high and low records may vary slightly from our data, if they occured in-between our weather recording intervals... More about our weather records

Advertising

San José de Mayo weather history for previous 24 hours

 ConditionsComfort  
Time TempWeatherWind HumidityBarometerVisibility
3:00 AM
Mon, Aug 3
52 °FFog.No wind100%29.92 "Hg0 mi
2:00 AM52 °FFog.No wind100%29.92 "Hg1 mi
1:00 AM54 °FFog.5 mph94%29.89 "Hg1 mi
12:00 AM54 °FFog.8 mph100%29.86 "Hg2 mi
11:00 PM
Sun, Aug 2
55 °FLow clouds.9 mph94%29.86 "Hg5 mi
10:00 PM55 °FFog.6 mph100%29.86 "Hg0 mi
9:00 PM57 °FFog.8 mph94%29.83 "Hg1 mi
8:00 PM57 °FLow clouds.7 mph94%29.80 "Hg4 mi
7:00 PM57 °FMostly cloudy.5 mph94%29.80 "HgN/A
6:00 PM59 °FLow clouds.7 mph88%29.74 "Hg4 mi
5:00 PM61 °FMore clouds than sun.10 mph88%29.71 "HgN/A
4:00 PM63 °FMore clouds than sun.7 mph83%29.71 "Hg6 mi
3:00 PM64 °FOvercast.8 mph83%29.71 "Hg4 mi
2:00 PM64 °FMostly cloudy.5 mph83%29.71 "HgN/A
1:00 PM64 °FMostly cloudy.6 mph83%29.74 "HgN/A
12:00 PM63 °FMostly cloudy.8 mph88%29.74 "HgN/A
11:00 AM61 °FOvercast.12 mph88%29.74 "HgN/A
10:00 AM57 °FOvercast.12 mph94%29.74 "HgN/A
9:00 AM57 °FOvercast.9 mph94%29.74 "HgN/A
8:00 AM59 °FThundershowers. Broken clouds.6 mph94%29.74 "HgN/A
7:00 AM57 °FOvercast.8 mph94%29.74 "HgN/A
6:00 AM57 °FThunderstorms. Overcast.18 mph94%29.71 "Hg5 mi
5:00 AM59 °FThunderstorms. Overcast.13 mph88%29.71 "Hg5 mi
4:00 AM57 °FThunderstorms. Overcast.9 mph94%29.74 "Hg5 mi
Weather by CustomWeather, © 2015

See weather overviewHow to use our weather pages